�������l�o���
Date,Time,MP-1(��Sv/h),MP-2(��Sv/h),MP-3(��Sv/h),MP-4(��Sv/h),MP-5(��Sv/h),MP-6(��Sv/h),MP-7(��Sv/h),MP-8(��Sv/h),����,����(m/s),���J
2023/11/05,00:00,0.531,0.804,0.498,1.009,0.732,0.320,0.571,0.532,�k�k��,5.4,��
2023/11/05,00:10,0.530,0.804,0.497,1.009,0.732,0.319,0.572,0.532,�k��,5.9,��
2023/11/05,00:20,0.531,0.804,0.497,1.008,0.731,0.319,0.571,0.532,�k��,5.9,��
2023/11/05,00:30,0.529,0.803,0.497,1.009,0.732,0.318,0.571,0.532,�k�k��,5.1,��
2023/11/05,00:40,0.530,0.805,0.497,1.010,0.731,0.318,0.571,0.533,�k�k��,5.9,��
2023/11/05,00:50,0.530,0.803,0.496,1.010,0.728,0.319,0.573,0.533,�k�k��,5.9,��
2023/11/05,01:00,0.531,0.805,0.496,1.009,0.730,0.319,0.572,0.532,�k�k��,6.2,��
2023/11/05,01:10,0.530,0.804,0.497,1.010,0.731,0.319,0.572,0.532,�k�k��,5.5,��
2023/11/05,01:20,0.529,0.803,0.496,1.009,0.730,0.320,0.573,0.534,�k�k��,5.3,��
2023/11/05,01:30,0.532,0.804,0.497,1.008,0.731,0.319,0.571,0.533,�k�k��,6.6,��
2023/11/05,01:40,0.529,0.806,0.498,1.010,0.729,0.320,0.571,0.533,�k�k��,6.5,��
2023/11/05,01:50,0.530,0.803,0.498,1.011,0.730,0.319,0.570,0.534,�k�k��,6.5,��
2023/11/05,02:00,0.530,0.804,0.497,1.009,0.730,0.318,0.570,0.533,�k�k��,6.2,��
2023/11/05,02:10,0.529,0.801,0.496,1.010,0.731,0.318,0.571,0.533,�k�k��,6.4,��
2023/11/05,02:20,0.529,0.802,0.497,1.009,0.730,0.318,0.572,0.533,�k�k��,5.9,��
2023/11/05,02:30,0.529,0.802,0.497,1.010,0.730,0.321,0.571,0.533,�k�k��,6.6,��
2023/11/05,02:40,0.530,0.803,0.496,1.010,0.730,0.319,0.571,0.534,�k�k��,6.3,��
2023/11/05,02:50,0.532,0.802,0.498,1.009,0.730,0.319,0.572,0.533,�k�k��,6.1,��
2023/11/05,03:00,0.531,0.803,0.497,1.008,0.730,0.318,0.572,0.533,�k�k��,5.8,��
2023/11/05,03:10,0.529,0.803,0.497,1.008,0.730,0.319,0.571,0.533,�k�k��,5.3,��
2023/11/05,03:20,0.530,0.804,0.496,1.008,0.730,0.318,0.574,0.533,�k�k��,5.3,��
2023/11/05,03:30,0.529,0.804,0.497,1.007,0.728,0.319,0.573,0.532,�k�k��,6.1,��
2023/11/05,03:40,0.529,0.803,0.497,1.008,0.730,0.318,0.571,0.531,�k�k��,5.9,��
2023/11/05,03:50,0.530,0.802,0.497,1.008,0.730,0.319,0.572,0.534,�k�k��,5.9,��
2023/11/05,04:00,0.528,0.803,0.496,1.010,0.730,0.318,0.573,0.534,�k�k��,5.7,��
2023/11/05,04:10,0.528,0.803,0.497,1.006,0.730,0.318,0.572,0.532,�k�k��,6.0,��
2023/11/05,04:20,0.529,0.804,0.496,1.009,0.731,0.319,0.571,0.535,�k�k��,6.4,��
2023/11/05,04:30,0.527,0.804,0.495,1.009,0.729,0.318,0.571,0.531,�k�k��,6.0,��
2023/11/05,04:40,0.529,0.802,0.495,1.008,0.728,0.319,0.571,0.532,�k�k��,6.1,��
2023/11/05,04:50,0.527,0.804,0.497,1.009,0.729,0.317,0.571,0.533,�k�k��,6.0,��
2023/11/05,05:00,0.529,0.803,0.496,1.008,0.730,0.318,0.572,0.533,�k��,6.4,��
2023/11/05,05:10,0.529,0.803,0.497,1.007,0.729,0.317,0.572,0.532,�k�k��,5.8,��
2023/11/05,05:20,0.529,0.802,0.497,1.008,0.730,0.318,0.573,0.533,�k�k��,6.2,��
2023/11/05,05:30,0.529,0.800,0.496,1.008,0.731,0.318,0.572,0.532,�k�k��,6.0,��
2023/11/05,05:40,0.529,0.803,0.496,1.012,0.727,0.318,0.572,0.533,�k�k��,5.7,��
2023/11/05,05:50,0.528,0.802,0.496,1.009,0.729,0.318,0.572,0.532,�k�k��,6.3,��
2023/11/05,06:00,0.530,0.800,0.496,1.010,0.729,0.318,0.573,0.532,�k�k��,6.3,��
2023/11/05,06:10,0.530,0.803,0.495,1.007,0.730,0.319,0.572,0.534,�k�k��,6.2,��
2023/11/05,06:20,0.530,0.804,0.496,1.008,0.728,0.318,0.573,0.532,�k�k��,6.0,��
2023/11/05,06:30,0.529,0.803,0.497,1.008,0.729,0.319,0.572,0.533,�k�k��,5.8,��
2023/11/05,06:40,0.529,0.804,0.495,1.008,0.728,0.318,0.572,0.533,�k�k��,6.5,��
2023/11/05,06:50,0.528,0.802,0.496,1.006,0.729,0.319,0.572,0.532,�k�k��,5.6,��
2023/11/05,07:00,0.531,0.803,0.496,1.010,0.730,0.318,0.572,0.532,�k�k��,5.5,��
2023/11/05,07:10,0.531,0.801,0.496,1.008,0.730,0.319,0.573,0.533,�k�k��,5.1,��
2023/11/05,07:20,0.528,0.801,0.497,1.009,0.728,0.319,0.572,0.533,�k�k��,4.9,��
2023/11/05,07:30,0.529,0.802,0.496,1.008,0.730,0.319,0.573,0.533,�k�k��,5.1,��
2023/11/05,07:40,0.529,0.801,0.496,1.010,0.729,0.319,0.573,0.532,�k�k��,5.4,��
2023/11/05,07:50,0.529,0.805,0.497,1.009,0.729,0.318,0.571,0.533,�k�k��,5.4,��
2023/11/05,08:00,0.529,0.801,0.496,1.008,0.729,0.319,0.572,0.532,�k�k��,5.5,��
2023/11/05,08:10,0.529,0.804,0.496,1.008,0.730,0.318,0.572,0.534,�k�k��,6.0,��
2023/11/05,08:20,0.529,0.801,0.497,1.008,0.732,0.318,0.572,0.531,�k�k��,4.8,��
2023/11/05,08:30,0.529,0.805,0.497,1.009,0.730,0.318,0.572,0.533,�k�k��,4.7,��
2023/11/05,08:40,0.528,0.802,0.495,1.009,0.731,0.318,0.572,0.533,�k�k��,3.9,��
2023/11/05,08:50,0.530,0.802,0.497,1.012,0.730,0.319,0.573,0.531,�k�k��,5.2,��
2023/11/05,09:00,0.530,0.800,0.497,1.011,0.728,0.318,0.573,0.531,�k�k��,5.1,��
2023/11/05,09:10,0.529,0.803,0.496,1.010,0.729,0.319,0.573,0.532,�k�k��,5.2,��
2023/11/05,09:20,0.530,0.800,0.498,1.008,0.728,0.318,0.573,0.531,�k�k��,4.6,��
2023/11/05,09:30,0.528,0.801,0.496,1.011,0.728,0.317,0.573,0.531,�k�k��,4.7,��
2023/11/05,09:40,0.529,0.799,0.497,1.009,0.729,0.318,0.573,0.531,�k�k��,4.8,��
2023/11/05,09:50,0.528,0.801,0.496,1.009,0.728,0.318,0.573,0.532,�k�k��,4.5,��
2023/11/05,10:00,0.529,0.801,0.497,1.010,0.730,0.318,0.573,0.529,�k�k��,5.2,��
2023/11/05,10:10,0.527,0.799,0.497,1.011,0.728,0.317,0.573,0.532,�k,5.2,��
2023/11/05,10:20,0.528,0.801,0.496,1.011,0.728,0.317,0.572,0.531,�k,4.9,��
2023/11/05,10:30,0.528,0.803,0.495,1.010,0.728,0.319,0.573,0.531,�k,5.4,��
2023/11/05,10:40,0.528,0.801,0.494,1.010,0.728,0.317,0.573,0.531,�k�k��,6.3,��
2023/11/05,10:50,0.529,0.802,0.495,1.010,0.728,0.317,0.572,0.531,�k,6.2,��
2023/11/05,11:00,0.528,0.799,0.495,1.008,0.728,0.317,0.571,0.531,�k,6.6,��
2023/11/05,11:10,0.528,0.799,0.495,1.010,0.729,0.317,0.571,0.531,�k,6.7,�L
2023/11/05,11:20,0.528,0.803,0.495,1.009,0.728,0.317,0.572,0.529,�k,6.6,�L
2023/11/05,11:30,0.529,0.801,0.495,1.009,0.728,0.317,0.572,0.528,�k,5.9,�L
2023/11/05,11:40,0.528,0.801,0.494,1.011,0.725,0.316,0.573,0.529,�k,5.8,�L
2023/11/05,11:50,0.527,0.799,0.491,1.009,0.727,0.317,0.572,0.530,�k,6.8,��
2023/11/05,12:00,0.526,0.800,0.494,1.011,0.728,0.317,0.572,0.530,�k�k��,6.0,��
2023/11/05,12:10,0.527,0.800,0.494,1.009,0.728,0.316,0.572,0.530,�k,4.3,��
2023/11/05,12:20,0.526,0.799,0.494,1.011,0.728,0.317,0.571,0.531,�k,4.1,��
2023/11/05,12:30,0.527,0.802,0.495,1.009,0.729,0.318,0.571,0.530,�k,4.4,��
2023/11/05,12:40,0.528,0.801,0.495,1.012,0.727,0.316,0.573,0.530,�k,3.9,��
2023/11/05,12:50,0.527,0.802,0.495,1.009,0.728,0.318,0.571,0.530,�k,3.8,��
2023/11/05,13:00,0.529,0.802,0.497,1.011,0.727,0.316,0.572,0.532,�k�k��,4.5,��
2023/11/05,13:10,0.527,0.801,0.497,1.010,0.728,0.317,0.572,0.532,�k�k��,4.9,��
2023/11/05,13:20,0.528,0.801,0.497,1.010,0.728,0.316,0.571,0.533,�k�k��,4.9,��
2023/11/05,13:30,0.527,0.804,0.496,1.012,0.727,0.318,0.571,0.532,�k�k��,5.3,��
2023/11/05,13:40,0.528,0.801,0.496,1.011,0.729,0.316,0.570,0.529,�k�k��,4.9,�L
2023/11/05,13:50,0.527,0.801,0.495,1.012,0.730,0.317,0.571,0.529,�k�k��,5.4,�L
2023/11/05,14:00,0.528,0.804,0.496,1.008,0.728,0.317,0.572,0.531,�k�k��,5.0,�L
2023/11/05,14:10,0.529,0.802,0.495,1.013,0.727,0.318,0.572,0.531,�k�k��,4.2,�L
2023/11/05,14:20,0.529,0.801,0.495,1.012,0.728,0.317,0.570,0.531,�k�k��,4.4,��
2023/11/05,14:30,0.527,0.803,0.498,1.010,0.732,0.319,0.570,0.531,�k��,4.7,�L
2023/11/05,14:40,0.527,0.804,0.497,1.011,0.732,0.319,0.570,0.530,�k�k��,4.4,��
2023/11/05,14:50,0.527,0.806,0.496,1.011,0.731,0.317,0.570,0.529,�k�k��,5.1,��
2023/11/05,15:00,0.528,0.806,0.496,1.009,0.732,0.318,0.572,0.530,�k�k��,5.2,��
2023/11/05,15:10,0.527,0.806,0.497,1.009,0.732,0.317,0.572,0.530,�k��,5.1,��
2023/11/05,15:20,0.528,0.805,0.499,1.011,0.731,0.318,0.571,0.530,�k�k��,5.7,��
2023/11/05,15:30,0.528,0.805,0.497,1.010,0.731,0.319,0.571,0.530,�k�k��,4.7,�L
2023/11/05,15:40,0.528,0.803,0.496,1.011,0.730,0.318,0.570,0.532,�k��,5.1,�L
2023/11/05,15:50,0.526,0.805,0.496,1.011,0.730,0.319,0.572,0.531,�k�k��,6.1,�L
2023/11/05,16:00,0.527,0.804,0.496,1.010,0.729,0.317,0.571,0.532,�k�k��,6.1,�L
2023/11/05,16:10,0.527,0.803,0.497,1.010,0.730,0.316,0.572,0.531,�k�k��,6.5,�L
2023/11/05,16:20,0.527,0.802,0.495,1.009,0.730,0.319,0.571,0.531,�k��,7.0,��
2023/11/05,16:30,0.527,0.804,0.497,1.009,0.730,0.316,0.571,0.533,�k��,6.6,��
2023/11/05,16:40,0.527,0.802,0.497,1.010,0.730,0.318,0.572,0.532,�k�k��,6.4,��
2023/11/05,16:50,0.529,0.805,0.496,1.010,0.730,0.318,0.572,0.532,�k��,4.7,��
2023/11/05,17:00,0.529,0.803,0.496,1.010,0.732,0.316,0.572,0.533,�k��,6.3,��
2023/11/05,17:10,0.528,0.803,0.496,1.009,0.732,0.316,0.572,0.532,�k�k��,6.5,��
2023/11/05,17:20,0.528,0.803,0.496,1.011,0.729,0.318,0.570,0.533,�k�k��,6.0,��
2023/11/05,17:30,0.532,0.803,0.495,1.010,0.731,0.317,0.571,0.533,�k�k��,6.1,�L
2023/11/05,17:40,0.528,0.804,0.495,1.010,0.731,0.318,0.572,0.533,�k�k��,6.3,�L
2023/11/05,17:50,0.530,0.803,0.497,1.009,0.731,0.317,0.572,0.533,�k�k��,6.7,��
2023/11/05,18:00,0.530,0.802,0.496,1.010,0.730,0.317,0.571,0.533,�k�k��,7.3,��
2023/11/05,18:10,0.529,0.802,0.497,1.008,0.731,0.317,0.571,0.534,�k�k��,6.3,��
2023/11/05,18:20,0.529,0.803,0.496,1.010,0.730,0.317,0.571,0.534,�k�k��,5.8,��
2023/11/05,18:30,0.529,0.804,0.495,1.008,0.730,0.317,0.571,0.533,�k�k��,6.7,��
2023/11/05,18:40,0.529,0.803,0.496,1.008,0.729,0.316,0.572,0.533,�k�k��,7.1,��
2023/11/05,18:50,0.529,0.802,0.496,1.011,0.729,0.317,0.572,0.532,�k�k��,7.0,��
2023/11/05,19:00,0.528,0.804,0.495,1.010,0.730,0.316,0.571,0.533,�k��,6.7,��
2023/11/05,19:10,0.528,0.803,0.497,1.009,0.729,0.316,0.571,0.533,�k��,7.1,��
2023/11/05,19:20,0.530,0.804,0.495,1.010,0.731,0.317,0.572,0.532,�k�k��,6.7,��
2023/11/05,19:30,0.530,0.802,0.497,1.010,0.729,0.317,0.571,0.533,�k�k��,7.5,��
2023/11/05,19:40,0.530,0.804,0.496,1.011,0.731,0.316,0.571,0.533,�k�k��,7.6,��
2023/11/05,19:50,0.529,0.803,0.496,1.009,0.730,0.319,0.572,0.533,�k�k��,6.6,��
2023/11/05,20:00,0.530,0.804,0.497,1.010,0.729,0.318,0.573,0.533,�k�k��,7.7,��
2023/11/05,20:10,0.529,0.804,0.497,1.007,0.730,0.318,0.573,0.533,�k�k��,8.6,��
2023/11/05,20:20,0.531,0.804,0.496,1.010,0.730,0.317,0.573,0.534,�k�k��,9.3,��
2023/11/05,20:30,0.530,0.803,0.494,1.012,0.729,0.317,0.572,0.533,�k�k��,7.7,��
2023/11/05,20:40,0.529,0.803,0.495,1.009,0.730,0.316,0.571,0.534,�k�k��,7.9,��
2023/11/05,20:50,0.528,0.803,0.496,1.011,0.731,0.317,0.572,0.532,�k�k��,7.0,��
2023/11/05,21:00,0.528,0.802,0.495,1.008,0.729,0.317,0.572,0.533,�k�k��,6.9,��
2023/11/05,21:10,0.530,0.802,0.496,1.010,0.731,0.319,0.571,0.533,�k�k��,7.0,��
2023/11/05,21:20,0.530,0.802,0.496,1.009,0.729,0.317,0.572,0.532,�k��,5.6,��
2023/11/05,21:30,0.528,0.804,0.496,1.011,0.731,0.319,0.572,0.532,�k��,6.4,��
2023/11/05,21:40,0.529,0.802,0.497,1.009,0.729,0.318,0.571,0.533,�k��,5.5,��
2023/11/05,21:50,0.530,0.803,0.496,1.010,0.730,0.319,0.571,0.534,�k��,5.3,��
2023/11/05,22:00,0.530,0.805,0.496,1.010,0.731,0.318,0.572,0.533,�k��,5.1,��
2023/11/05,22:10,0.529,0.805,0.496,1.008,0.730,0.319,0.573,0.532,�k��,5.5,��
2023/11/05,22:20,0.529,0.804,0.495,1.011,0.730,0.317,0.572,0.534,�k��,5.7,��
2023/11/05,22:30,0.528,0.803,0.497,1.011,0.729,0.319,0.574,0.534,�k��,5.1,��
2023/11/05,22:40,0.528,0.804,0.495,1.010,0.728,0.319,0.573,0.532,�k��,5.7,��
2023/11/05,22:50,0.530,0.804,0.496,1.010,0.730,0.319,0.573,0.534,�k��,5.3,��
2023/11/05,23:00,0.529,0.804,0.496,1.010,0.730,0.319,0.574,0.532,�k��,5.7,��
2023/11/05,23:10,0.529,0.802,0.496,1.010,0.730,0.319,0.572,0.535,�k�k��,5.0,��
2023/11/05,23:20,0.529,0.803,0.496,1.009,0.729,0.318,0.573,0.532,�k,5.0,��
2023/11/05,23:30,0.528,0.802,0.495,1.011,0.730,0.318,0.573,0.532,�k,5.7,��
2023/11/05,23:40,0.528,0.803,0.495,1.009,0.729,0.319,0.572,0.533,�k�k��,6.3,��
2023/11/05,23:50,0.530,0.805,0.497,1.009,0.730,0.319,0.574,0.531,�k�k��,6.1,��
